Time,TemperatureF,DewpointF,PressureIn,WindDirection,WindDirectionDegrees,WindSpeedMPH,WindSpeedGustMPH,Humidity,HourlyPrecipIn,Conditions,Clouds,dailyrainin,SoftwareType,DateUTC
2013-08-08 00:11:00,67.0,63.0,-100.00,NNW,340,1.0,6.0,87,-99.99,,,-99.99,,2013-08-08 05:11:00,
2013-08-08 00:22:00,67.0,63.0,-100.00,NNW,340,1.0,6.0,87,-99.99,,,-99.99,,2013-08-08 05:22:00,
2013-08-08 00:33:00,67.0,62.0,-100.00,North,10,1.0,6.0,84,-99.99,,,-99.99,,2013-08-08 05:33:00,
2013-08-08 00:43:00,66.0,63.0,-100.00,NNW,345,1.0,2.0,89,-99.99,,,-99.99,,2013-08-08 05:43:00,
2013-08-08 00:52:00,66.0,63.0,-100.00,NNW,345,1.0,2.0,89,-99.99,,,-99.99,,2013-08-08 05:52:00,
2013-08-08 01:01:00,66.0,62.0,-100.00,North,350,2.0,4.0,86,-99.99,,,-99.99,,2013-08-08 06:01:00,
2013-08-08 01:12:00,65.0,62.0,-100.00,NW,325,0.0,3.0,88,-99.99,,,-99.99,,2013-08-08 06:12:00,
2013-08-08 01:22:00,65.0,62.0,-100.00,NW,325,0.0,3.0,88,-99.99,,,-99.99,,2013-08-08 06:22:00,
2013-08-08 01:43:00,65.0,61.0,-100.00,ENE,65,0.0,2.0,89,-99.99,,,-99.99,,2013-08-08 06:43:00,
2013-08-08 01:52:00,65.0,61.0,-100.00,ENE,65,0.0,2.0,89,-99.99,,,-99.99,,2013-08-08 06:52:00,
2013-08-08 02:12:00,64.0,62.0,-100.00,ENE,70,0.0,1.0,92,-99.99,,,-99.99,,2013-08-08 07:12:00,
2013-08-08 02:22:00,64.0,62.0,-100.00,ENE,70,0.0,1.0,92,-99.99,,,-99.99,,2013-08-08 07:22:00,
2013-08-08 02:32:00,64.0,61.0,-100.00,NW,305,0.0,1.0,92,-99.99,,,-99.99,,2013-08-08 07:32:00,
2013-08-08 02:43:00,63.0,61.0,-100.00,WNW,300,1.0,1.0,94,-99.99,,,-99.99,,2013-08-08 07:43:00,
2013-08-08 02:53:00,63.0,61.0,-100.00,WNW,300,1.0,1.0,94,-99.99,,,-99.99,,2013-08-08 07:53:00,
2013-08-08 03:02:00,63.0,61.0,-100.00,NNW,345,1.0,4.0,92,-99.99,,,-99.99,,2013-08-08 08:02:00,
2013-08-08 03:11:00,64.0,61.0,-100.00,NW,320,1.0,7.0,91,-99.99,,,-99.99,,2013-08-08 08:11:00,
2013-08-08 03:22:00,64.0,61.0,-100.00,NW,320,1.0,7.0,91,-99.99,,,-99.99,,2013-08-08 08:22:00,
2013-08-08 03:43:00,63.0,61.0,-100.00,NNW,345,3.0,6.0,91,-99.99,,,-99.99,,2013-08-08 08:43:00,
2013-08-08 03:53:00,63.0,61.0,-100.00,NNW,345,3.0,6.0,91,-99.99,,,-99.99,,2013-08-08 08:53:00,
2013-08-08 04:12:00,63.0,60.0,-100.00,North,0,1.0,4.0,91,-99.99,,,-99.99,,2013-08-08 09:12:00,
2013-08-08 04:22:00,63.0,60.0,-100.00,North,0,1.0,4.0,91,-99.99,,,-99.99,,2013-08-08 09:22:00,
2013-08-08 04:43:00,63.0,60.0,-100.00,East,80,0.0,4.0,90,-99.99,,,-99.99,,2013-08-08 09:43:00,
2013-08-08 04:53:00,63.0,60.0,-100.00,East,80,0.0,4.0,90,-99.99,,,-99.99,,2013-08-08 09:53:00,
2013-08-08 05:01:00,62.0,60.0,-100.00,NE,55,0.0,1.0,92,-99.99,,,-99.99,,2013-08-08 10:01:00,
2013-08-08 05:12:00,63.0,60.0,-100.00,NNW,340,2.0,4.0,90,-99.99,,,-99.99,,2013-08-08 10:12:00,
2013-08-08 05:22:00,63.0,60.0,-100.00,NNW,340,2.0,4.0,90,-99.99,,,-99.99,,2013-08-08 10:22:00,
2013-08-08 05:32:00,62.0,59.0,-100.00,NNW,340,0.0,5.0,90,-99.99,,,-99.99,,2013-08-08 10:32:00,
2013-08-08 05:43:00,62.0,60.0,-100.00,East,80,0.0,2.0,92,-99.99,,,-99.99,,2013-08-08 10:43:00,
2013-08-08 05:52:00,62.0,60.0,-100.00,East,80,0.0,2.0,92,-99.99,,,-99.99,,2013-08-08 10:52:00,
2013-08-08 06:02:00,61.0,59.0,-100.00,North,0,1.0,4.0,93,-99.99,,,-99.99,,2013-08-08 11:02:00,
2013-08-08 06:11:00,62.0,59.0,-100.00,NW,310,1.0,6.0,91,-99.99,,,-99.99,,2013-08-08 11:11:00,
2013-08-08 06:22:00,62.0,59.0,-100.00,NW,310,1.0,6.0,91,-99.99,,,-99.99,,2013-08-08 11:22:00,
2013-08-08 06:43:00,62.0,59.0,-100.00,NNW,330,1.0,4.0,90,-99.99,,,-99.99,,2013-08-08 11:43:00,
2013-08-08 06:52:00,62.0,59.0,-100.00,NNW,330,1.0,4.0,90,-99.99,,,-99.99,,2013-08-08 11:52:00,
2013-08-08 07:01:00,62.0,59.0,-100.00,North,5,1.0,5.0,90,-99.99,,,-99.99,,2013-08-08 12:01:00,
2013-08-08 07:11:00,63.0,60.0,-100.00,NE,40,1.0,3.0,89,-99.99,,,-99.99,,2013-08-08 12:11:00,
2013-08-08 07:21:00,63.0,60.0,-100.00,NE,40,1.0,3.0,89,-99.99,,,-99.99,,2013-08-08 12:21:00,
2013-08-08 07:43:00,64.0,60.0,-100.00,NNE,25,1.0,5.0,87,-99.99,,,-99.99,,2013-08-08 12:43:00,
2013-08-08 07:53:00,64.0,60.0,-100.00,NNE,25,1.0,5.0,87,-99.99,,,-99.99,,2013-08-08 12:53:00,
2013-08-08 08:11:00,66.0,61.0,-100.00,North,0,1.0,6.0,85,-99.99,,,-99.99,,2013-08-08 13:11:00,
2013-08-08 08:22:00,66.0,61.0,-100.00,North,0,1.0,6.0,85,-99.99,,,-99.99,,2013-08-08 13:22:00,
2013-08-08 08:32:00,67.0,61.0,-100.00,North,0,1.0,5.0,83,-99.99,,,-99.99,,2013-08-08 13:32:00,
2013-08-08 08:43:00,68.0,63.0,-100.00,NNW,330,1.0,6.0,84,-99.99,,,-99.99,,2013-08-08 13:43:00,
2013-08-08 08:53:00,68.0,63.0,-100.00,NNW,330,1.0,6.0,84,-99.99,,,-99.99,,2013-08-08 13:53:00,
2013-08-08 09:11:00,69.0,63.0,-100.00,ENE,65,1.0,4.0,83,-99.99,,,-99.99,,2013-08-08 14:11:00,
2013-08-08 09:22:00,69.0,63.0,-100.00,ENE,65,1.0,4.0,83,-99.99,,,-99.99,,2013-08-08 14:22:00,
2013-08-08 09:32:00,71.0,64.0,-100.00,North,0,2.0,6.0,78,-99.99,,,-99.99,,2013-08-08 14:32:00,
2013-08-08 09:43:00,73.0,64.0,-100.00,North,355,2.0,6.0,74,-99.99,,,-99.99,,2013-08-08 14:43:00,
2013-08-08 09:53:00,73.0,64.0,-100.00,North,355,2.0,6.0,74,-99.99,,,-99.99,,2013-08-08 14:53:00,
2013-08-08 10:02:00,73.0,63.0,-100.00,NE,40,2.0,6.0,71,-99.99,,,-99.99,,2013-08-08 15:02:00,
2013-08-08 10:11:00,75.0,65.0,-100.00,North,355,1.0,5.0,71,-99.99,,,-99.99,,2013-08-08 15:11:00,
2013-08-08 10:22:00,75.0,65.0,-100.00,North,355,1.0,5.0,71,-99.99,,,-99.99,,2013-08-08 15:22:00,
2013-08-08 10:43:00,77.0,64.0,-100.00,NNW,345,0.0,8.0,64,-99.99,,,-99.99,,2013-08-08 15:43:00,
2013-08-08 10:53:00,77.0,64.0,-100.00,NNW,345,0.0,8.0,64,-99.99,,,-99.99,,2013-08-08 15:53:00,
2013-08-08 11:11:00,77.0,64.0,-100.00,NNE,25,1.0,5.0,65,-99.99,,,-99.99,,2013-08-08 16:11:00,
2013-08-08 11:22:00,77.0,64.0,-100.00,NNE,25,1.0,5.0,65,-99.99,,,-99.99,,2013-08-08 16:22:00,
2013-08-08 11:32:00,77.0,64.0,-100.00,NE,40,1.0,4.0,65,-99.99,,,-99.99,,2013-08-08 16:32:00,
2013-08-08 11:42:00,78.0,65.0,-100.00,SW,220,0.0,8.0,64,-99.99,,,-99.99,,2013-08-08 16:42:00,
2013-08-08 11:52:00,78.0,65.0,-100.00,SW,220,0.0,8.0,64,-99.99,,,-99.99,,2013-08-08 16:52:00,
2013-08-08 12:02:00,77.0,65.0,-100.00,North,5,0.0,5.0,66,-99.99,,,-99.99,,2013-08-08 17:02:00,
2013-08-08 12:11:00,79.0,65.0,-100.00,North,0,1.0,6.0,62,-99.99,,,-99.99,,2013-08-08 17:11:00,
2013-08-08 12:21:00,79.0,65.0,-100.00,North,0,1.0,6.0,62,-99.99,,,-99.99,,2013-08-08 17:21:00,
2013-08-08 12:32:00,79.0,65.0,-100.00,North,0,1.0,8.0,64,-99.99,,,-99.99,,2013-08-08 17:32:00,
2013-08-08 12:43:00,79.0,66.0,-100.00,WNW,300,1.0,7.0,64,-99.99,,,-99.99,,2013-08-08 17:43:00,
2013-08-08 12:52:00,79.0,66.0,-100.00,WNW,300,1.0,7.0,64,-99.99,,,-99.99,,2013-08-08 17:52:00,
2013-08-08 13:01:00,79.0,66.0,-100.00,NNE,20,1.0,5.0,64,-99.99,,,-99.99,,2013-08-08 18:01:00,
2013-08-08 13:11:00,79.0,66.0,-100.00,North,0,2.0,6.0,65,-99.99,,,-99.99,,2013-08-08 18:11:00,
2013-08-08 13:22:00,79.0,66.0,-100.00,North,0,2.0,6.0,65,-99.99,,,-99.99,,2013-08-08 18:22:00,
2013-08-08 13:32:00,79.0,65.0,-100.00,NNW,330,4.0,6.0,61,-99.99,,,-99.99,,2013-08-08 18:32:00,
2013-08-08 13:43:00,79.0,65.0,-100.00,NNW,335,2.0,5.0,61,-99.99,,,-99.99,,2013-08-08 18:43:00,
2013-08-08 13:53:00,79.0,65.0,-100.00,NNW,335,2.0,5.0,61,-99.99,,,-99.99,,2013-08-08 18:53:00,
2013-08-08 14:01:00,79.0,64.0,-100.00,North,0,3.0,7.0,61,-99.99,,,-99.99,,2013-08-08 19:01:00,
2013-08-08 14:12:00,81.0,65.0,-100.00,NE,40,0.0,6.0,57,-99.99,,,-99.99,,2013-08-08 19:12:00,
2013-08-08 14:22:00,81.0,65.0,-100.00,NE,40,0.0,6.0,57,-99.99,,,-99.99,,2013-08-08 19:22:00,
2013-08-08 14:32:00,81.0,63.0,-100.00,North,10,1.0,5.0,55,-99.99,,,-99.99,,2013-08-08 19:32:00,
2013-08-08 14:43:00,82.0,64.0,-100.00,North,5,2.0,5.0,55,-99.99,,,-99.99,,2013-08-08 19:43:00,
2013-08-08 14:58:00,82.0,64.0,-100.00,North,5,2.0,5.0,55,-99.99,,,-99.99,,2013-08-08 19:58:00,
2013-08-08 15:11:00,83.0,63.0,-100.00,NNW,340,1.0,6.0,52,-99.99,,,-99.99,,2013-08-08 20:11:00,
2013-08-08 15:22:00,83.0,63.0,-100.00,NNW,340,1.0,6.0,52,-99.99,,,-99.99,,2013-08-08 20:22:00,
2013-08-08 15:32:00,81.0,63.0,-100.00,ENE,60,0.0,5.0,55,-99.99,,,-99.99,,2013-08-08 20:32:00,
2013-08-08 15:42:00,84.0,64.0,-100.00,NNW,340,2.0,5.0,51,-99.99,,,-99.99,,2013-08-08 20:42:00,
2013-08-08 15:52:00,84.0,64.0,-100.00,NNW,340,2.0,5.0,51,-99.99,,,-99.99,,2013-08-08 20:52:00,
2013-08-08 16:14:00,81.0,65.0,-100.00,North,0,1.0,6.0,57,-99.99,,,-99.99,,2013-08-08 21:14:00,
2013-08-08 16:24:00,81.0,65.0,-100.00,North,0,1.0,6.0,57,-99.99,,,-99.99,,2013-08-08 21:24:00,
2013-08-08 16:44:00,79.0,65.0,-100.00,NNE,20,0.0,5.0,62,-99.99,,,-99.99,,2013-08-08 21:44:00,
2013-08-08 16:57:00,79.0,65.0,-100.00,NNE,20,0.0,5.0,62,-99.99,,,-99.99,,2013-08-08 21:57:00,
2013-08-08 17:16:00,80.0,64.0,-100.00,NNW,335,1.0,4.0,59,-99.99,,,-99.99,,2013-08-08 22:16:00,
2013-08-08 17:35:00,80.0,63.0,-100.00,North,0,1.0,6.0,55,-99.99,,,-99.99,,2013-08-08 22:35:00,
2013-08-08 17:47:00,80.0,64.0,-100.00,WNW,295,1.0,4.0,59,-99.99,,,-99.99,,2013-08-08 22:47:00,
2013-08-08 17:58:00,80.0,64.0,-100.00,WNW,295,1.0,4.0,59,-99.99,,,-99.99,,2013-08-08 22:58:00,
2013-08-08 18:04:00,80.0,65.0,-100.00,NNW,330,0.0,4.0,59,-99.99,,,-99.99,,2013-08-08 23:04:00,
2013-08-08 18:14:00,79.0,64.0,-100.00,NNW,335,1.0,2.0,59,-99.99,,,-99.99,,2013-08-08 23:14:00,
2013-08-08 18:24:00,79.0,64.0,-100.00,NNW,335,1.0,2.0,59,-99.99,,,-99.99,,2013-08-08 23:24:00,
2013-08-08 18:36:00,78.0,64.0,-100.00,NW,320,1.0,4.0,61,-99.99,,,-99.99,,2013-08-08 23:36:00,
2013-08-08 18:46:00,78.0,65.0,-100.00,NNE,30,1.0,3.0,64,-99.99,,,-99.99,,2013-08-08 23:46:00,
2013-08-08 18:57:00,78.0,65.0,-100.00,NNE,30,1.0,3.0,64,-99.99,,,-99.99,,2013-08-08 23:57:00,
2013-08-08 19:14:00,77.0,64.0,-100.00,NW,325,0.0,4.0,66,-99.99,,,-99.99,,2013-08-09 00:14:00,
2013-08-08 19:24:00,77.0,64.0,-100.00,NW,325,0.0,4.0,66,-99.99,,,-99.99,,2013-08-09 00:24:00,
2013-08-08 19:34:00,76.0,64.0,-100.00,North,350,0.0,1.0,65,-99.99,,,-99.99,,2013-08-09 00:34:00,
2013-08-08 19:56:00,76.0,64.0,-100.00,North,0,0.0,1.0,66,-99.99,,,-99.99,,2013-08-09 00:56:00,
2013-08-08 20:03:00,75.0,64.0,-100.00,North,350,0.0,1.0,70,-99.99,,,-99.99,,2013-08-09 01:03:00,
2013-08-08 20:15:00,75.0,64.0,-100.00,NNW,335,1.0,4.0,67,-99.99,,,-99.99,,2013-08-09 01:15:00,
2013-08-08 20:25:00,75.0,64.0,-100.00,NNW,335,1.0,4.0,67,-99.99,,,-99.99,,2013-08-09 01:25:00,
2013-08-08 20:35:00,74.0,64.0,-100.00,NNW,335,1.0,3.0,70,-99.99,,,-99.99,,2013-08-09 01:35:00,
2013-08-08 20:59:00,73.0,64.0,-100.00,North,350,0.0,0.0,72,-99.99,,,-99.99,,2013-08-09 01:59:00,
2013-08-08 21:14:00,73.0,63.0,-100.00,North,0,0.0,4.0,71,-99.99,,,-99.99,,2013-08-09 02:14:00,
2013-08-08 21:25:00,73.0,63.0,-100.00,North,0,0.0,4.0,71,-99.99,,,-99.99,,2013-08-09 02:25:00,
2013-08-08 21:57:00,71.0,63.0,-100.00,NE,45,0.0,0.0,77,-99.99,,,-99.99,,2013-08-09 02:57:00,
2013-08-08 22:15:00,70.0,63.0,-100.00,North,355,0.0,1.0,80,-99.99,,,-99.99,,2013-08-09 03:15:00,
2013-08-08 22:24:00,70.0,63.0,-100.00,North,355,0.0,1.0,80,-99.99,,,-99.99,,2013-08-09 03:24:00,
2013-08-08 22:34:00,69.0,63.0,-100.00,North,355,0.0,0.0,81,-99.99,,,-99.99,,2013-08-09 03:34:00,
2013-08-08 22:45:00,69.0,64.0,-100.00,North,355,0.0,0.0,85,-99.99,,,-99.99,,2013-08-09 03:45:00,
2013-08-08 22:56:00,69.0,64.0,-100.00,North,355,0.0,0.0,85,-99.99,,,-99.99,,2013-08-09 03:56:00,
2013-08-08 23:01:00,68.0,64.0,-100.00,North,355,0.0,0.0,86,-99.99,,,-99.99,,2013-08-09 04:01:00,
2013-08-08 23:12:00,68.0,64.0,-100.00,North,355,0.0,0.0,87,-99.99,,,-99.99,,2013-08-09 04:12:00,
2013-08-08 23:22:00,68.0,64.0,-100.00,North,355,0.0,0.0,87,-99.99,,,-99.99,,2013-08-09 04:22:00,
2013-08-08 23:33:00,68.0,64.0,-100.00,NNE,15,0.0,1.0,89,-99.99,,,-99.99,,2013-08-09 04:33:00,
2013-08-08 23:43:00,67.0,65.0,-100.00,NNE,15,0.0,0.0,92,-99.99,,,-99.99,,2013-08-09 04:43:00,
2013-08-08 23:53:00,67.0,65.0,-100.00,NNE,15,0.0,0.0,92,-99.99,,,-99.99,,2013-08-09 04:53:00,